Weather Roundup
Issued by NWS

Home | Current Version | Previous Version | Graphics & Text | Print | Product List | Glossary Off
Versions: 1 2 3 4 5 6 7 8 9 10 11 12 13 14 15 16 17 18 19 20 21 22 23 24 25 26 27 28 29 30 31 32 33 34 35 36 37 38 39 40 41 42 43 44 45 46 47 48 49 50

000
NZUS93 KARX 300510
HRRWXR

CURRENT HOURLY OBSERVATIONS ACROSS
MUCH OF THE UPPER MISSISSIPPI VALLEY
NATIONAL WEATHER SERVICE LA CROSSE WI
1200 AM CDT SAT JUL 30 2016


...SOUTHEAST MINNESOTA...


CITY           SKY/WX    TMP DP  RH WIND       PRES   REMARKS
ROCHESTER      MOCLDY    65  60  84 N3        30.04S
ROCHESTER/MAYO MOCLDY    68  57  67 CALM      30.04S
WINONA         CLEAR     66  64  94 CALM      30.02S FOG
AUSTIN         CLOUDY    64  61  88 N3        30.03S
ALBERT LEA     CLOUDY    63  61  94 CALM      30.04F
DODGE CENTER   CLOUDY    64  57  77 N3        30.05R
PRESTON        CLOUDY    66  62  87 E5        30.04S
OWATONNA       CLOUDY    61  57  88 CALM      30.04F
FARIBAULT      CLOUDY    59  57  94 CALM      30.04S
$$

...ELSEWHERE IN MINNESOTA...


CITY           SKY/WX    TMP DP  RH WIND       PRES   REMARKS
MINNEAPOLIS    CLOUDY    70  57  63 N3        30.04R
INTNL FALLS    CLOUDY    61  56  83 CALM      30.04R
DULUTH         CLEAR     57  53  86 E5        30.08S
RED WING       CLEAR     63  59  88 CALM      30.02R
REDWOOD FALLS  CLEAR     64  55  72 CALM      30.05S
MANKATO        PTCLDY    63  52  67 N3        30.04S
WORTHINGTON    CLEAR     58  55  90 CALM      30.08S
FAIRMONT       MOCLDY    61  54  77 NW6       30.04S
$$

...SOUTHWEST WISCONSIN...


CITY           SKY/WX    TMP DP  RH WIND       PRES   REMARKS
LA CROSSE      CLOUDY    68  65  90 N3        30.01S
PRAIRIE DU CHI CLOUDY    67  64  90 CALM      29.99S
BOSCOBEL       CLEAR     66  64  93 CALM      30.00S FOG
LONE ROCK      CLEAR     65  62  90 NE5       30.00F
PLATTEVILLE    PTCLDY    66  66 100 NE3       30.00S
FORT MC COY    CLEAR     60  60  99 CALM      30.03S
CAMP DOUGLAS   CLEAR     61  61 100 E3        30.02S FOG
MAUSTON-NEW LI FOG       63  63  99 CALM      30.02S VSB 1/2
VIROQUA        FAIR      64  64 100 NE3       30.02F
WIS DELLS      CLOUDY    64  62  91 NE5       30.02S
$$

...ELSEWHERE IN WISCONSIN...


CITY           SKY/WX    TMP DP  RH WIND       PRES   REMARKS
MILWAUKEE      CLOUDY    71  65  81 E8        29.98S
MADISON        CLOUDY    66  61  84 N6        29.99F
GREEN BAY      MOCLDY    65  58  78 NE7       30.03S
EAU CLAIRE     CLEAR     63  61  93 CALM      30.03R
BLACK RVR FLS  FOG       60  60 100 CALM      30.03R VSB<1/4
MEDFORD        CLEAR     60  60 100 E5        30.07R
WAUSAU         CLEAR     61  59  93 CALM      30.05S
WIS RAPIDS     CLEAR     63  58  83 E3        30.05S
MARSHFIELD     CLEAR     63  58  83 E5        30.05R
RICE LAKE      CLEAR     61  57  88 CALM      30.06S
$$

...NORTHEAST IOWA...


CITY           SKY/WX    TMP DP  RH WIND       PRES   REMARKS
WATERLOO       MOCLDY    65  63  93 N5        29.99S
DUBUQUE        CLOUDY    67  65  93 NE8       30.00S
DECORAH        CLOUDY    66  66 100 CALM      30.02R
MASON CITY     CLOUDY    67  64  90 N5        30.04S
CHARLES CITY   CLOUDY    64  64 100 CALM      30.03S
OELWEIN        CLOUDY    66  64  94 N5        30.02R
$$

...ELSEWHERE IN IOWA...


CITY           SKY/WX    TMP DP  RH WIND       PRES   REMARKS
DES MOINES     PTCLDY    68  64  87 N5        30.00R
IOWA CITY      MOCLDY    69  66  90 NE7       29.98S
FORT DODGE     CLOUDY    66  64  94 CALM      30.04S
MARSHALLTOWN   CLEAR     64  64 100 N3        30.00S
CEDAR RAPIDS   CLOUDY    68  68 100 NE6       29.98R
$$

...NORTHERN ILLINOIS...


CITY           SKY/WX    TMP DP  RH WIND       PRES   REMARKS
CHICAGO-OHARE  MOCLDY    71  67  87 VRB7      29.95S
CHICAGO-MIDWAY CLOUDY    75  67  76 E12       29.94S
MOLINE         CLOUDY    71  67  87 E6        29.95S
ROCKFORD       PTCLDY    68  65  90 NE7       29.98S
PEORIA         PTCLDY    70  68  93 N3        29.93S
$$

NOTE: "FAIR" INDICATES FEW OR NO CLOUDS BELOW 12,000 FEET WITH NO
SIGNIFICANT WEATHER AND/OR OBSTRUCTIONS TO VISIBILITY. WIND
SPEEDS ARE IN MILES-PER-HOUR.




USA.gov is the U.S. government's official web portal to all federal, state and local government web resources and services.